Regional Weather Roundup
Issued by NWS

Home | Current Version | Previous Version | Text Only | Print | Product List | Glossary Off
Versions: 1 2 3 4 5 6 7 8 9 10 11 12 13 14 15 16 17 18 19 20 21 22 23 24 25 26 27 28 29 30 31 32 33 34 35 36 37 38 39 40 41 42 43 44 45 46 47 48 49 50

941
ASUS45 KTFX 060310
RWRMT
MONTANA REGIONAL WEATHER ROUNDUP
NATIONAL WEATHER SERVICE GREAT FALLS MT
900 PM MDT THU MAY 05 2016

NOTE: "FAIR" INDICATES FEW OR NO CLOUDS BELOW 12000 FEET WITH NO
SIGNIFICANT WEATHER AND/OR OBSTRUCTIONS TO VISIBILITY.

MTZ001>007-043-060400-
WEST OF THE DIVIDE

CITY           SKY/WX    TMP DP  RH WIND       PRES   REMARKS
KALISPELL      LGT RAIN  61  46  57 NE20      29.92R
MISSOULA       LGT RAIN  60  50  69 NE6       29.91R
BUTTE          CLOUDY    68  33  27 VRB6      29.92S
MULLAN PASS    MOCLDY    52  44  74 NW7       30.00R
ANACONDA         N/A     64  36  34 CALM      29.89R
DEER LODGE       N/A     68  37  32 N16G22    29.89R
EUREKA           N/A     66  48  52 NW12      29.93R
HAMILTON         N/A     66  39  37 NW8       29.84R
LIBBY            N/A     70  46  43 NW3       29.89R
PLAINS           N/A     62  55  77 MISG      29.89R
THOMPSON FALLS   N/A     66  55  67 CALM      29.91
$$

MTZ008-052>055-060400-
SOUTHWEST MONTANA

CITY           SKY/WX    TMP DP  RH WIND       PRES   REMARKS
BOZEMAN        CLOUDY    70  42  36 CALM      29.87R
DILLON         CLOUDY    65  29  25 S13       29.89R
ENNIS          CLEAR     63  30  29 CALM      29.97R
THREE FORKS      N/A     72 -19   2 CALM      29.87R
TWIN BRIDGES     N/A     67  25  20 E2        29.89R
$$

MTZ009-010-012-014-046-048-049-054-060400-
EAST SLOPES AND CENTRAL MONTANA

CITY           SKY/WX    TMP DP  RH WIND       PRES   REMARKS
CUT BANK       CLOUDY    54  37  52 N20G30    30.06R
GREAT FALLS    CLOUDY    62  41  46 NE18      29.97R
MALMSTROM AFB  PTCLDY    63  42  47 N16       29.96R
HELENA         LGT RAIN  66  46  48 N16G29    29.92R
CHOTEAU          N/A     57  39  51 N18       30.05R
CONRAD           N/A     58  47  66 NW16      30.05R
$$

MTZ011-013-016-021-045-047-050-051-060400-
NORTH CENTRAL MONTANA

CITY           SKY/WX    TMP DP  RH WIND       PRES   REMARKS
HAVRE          MOCLDY    67  43  41 N16G24    29.92R
LEWISTOWN      CLOUDY    68  42  38 N3        29.92R
N BAR RANCH      N/A     64  39  39 CALM      29.95R
$$

MTZ017>020-022>027-061-062-060400-
NORTHEAST MONTANA

CITY           SKY/WX    TMP DP  RH WIND       PRES   REMARKS
GLASGOW        CLOUDY    73  42  32 NW6       29.79R
JORDAN           N/A     66  46  48 CALM      29.81R
SIDNEY         PTCLDY    66  43  42 NW10      29.76R
WOLF POINT     CLOUDY    67  48  50 NW7       29.77R
POPLAR           N/A     75  43  31 NW5       29.77R
SCOBEY           N/A     77  40  26 N8        29.81R
$$

MTZ028>42-056>058-060400-
SOUTHCENTRAL AND SOUTHEAST MONTANA

CITY           SKY/WX    TMP DP  RH WIND       PRES   REMARKS
BAKER          MOCLDY    65  46  50 W6        29.83R
BILLINGS       CLOUDY    75  36  24 NE6       29.85S
LIVINGSTON     CLOUDY    67  39  35 SE9       29.88R
MILES CITY     MOCLDY    80  35  19 W3        29.80R
FORSYTH          N/A     70  46  43 CALM      29.80R
LAUREL           N/A     70  39  32 CALM      29.86R
ROUNDUP          N/A     70  44  38 N2        29.80R
$$

REGIONAL REPORTS...DAKOTAS

CITY           SKY/WX    TMP DP  RH WIND       PRES   REMARKS
WILLISTON      CLEAR     66  43  43 W10       29.75R
MINOT          CLOUDY    77  40  26 SW8       29.72S
DICKINSON      CLOUDY    65  37  35 S5        29.79S
BEACH            N/A     63  41  45 SW6       29.84R
CROSBY           N/A     68  39  34 NW9       29.76R
TIOGA            N/A     66  37  34 SW10      29.81R
WATFORD CITY     N/A     64  46  52 S5        29.77R
BISMARCK       CLOUDY    68  48  48 CALM      29.78R
GRAND FORKS    PTCLDY    67  38  34 SW7       29.71S
FARGO          CLEAR     76  40  27 SW12      29.76R
BUFFALO SD       N/A     69  50  50 S8        29.79R
RAPID CITY     PTCLDY    63  43  48 E3        29.87R
$$

REGIONAL REPORTS...WYOMING/IDAHO/WASHINGTON

CITY           SKY/WX    TMP DP  RH WIND       PRES   REMARKS
GILLETTE       CLOUDY    52  44  74 SW5       29.91R
SHERIDAN       CLOUDY    60  45  57 SW10      29.89R
BUFFALO WY     CLOUDY    63  39  41 W7        29.97R
CODY           CLOUDY    66  30  26 SE7       29.92S
YELLOWSTONE LA   N/A     43  31  62 CALM      30.13R
IDAHO FALLS    CLOUDY    72  33  24 S16       29.88R
SALMON         CLOUDY    72  34  25 E6        29.80R
BOISE          CLOUDY    69  47  45 NW16      29.77R
SPOKANE        MOCLDY    63  50  62 N10       29.90R
$$

REGIONAL REPORTS...ALBERTA

CITY           SKY/WX    TMP DP  RH WIND       PRES   REMARKS
EDMONTON       PTCLDY    55  23  28 W7        30.02R
CALGARY        MOCLDY    48  39  71 W7        30.13R
LETHBRIDGE     CLOUDY    54  43  66 N7        30.10R
MEDICINE HAT   CLOUDY    55  41  58 NW16      30.04R
WATERTON GATE    N/A     46  41  81 W1          N/A
MILK RIVER       N/A     54  39  58 N18G25      N/A
ONEFOUR          N/A     57  41  54 NW20G25     N/A
$$

REGIONAL REPORTS...SASKATCHEWAN

CITY           SKY/WX    TMP DP  RH WIND       PRES   REMARKS
SWIFT CURRENT  CLOUDY    61  41  48 N20G28    29.92R HAZE
REGINA         MOCLDY    70  45  40 N13       29.75R
SASKATOON      PTCLDY    55  39  54 N20G28    29.92R
CYPRESS HILLS    N/A     54  36  50 N13G23      N/A
VAL MARIE        N/A     66  36  32 N17         N/A
ROCKGLEN         N/A     66  39  37 N10         N/A
ASSINIBOIA       N/A     52  37  58 S7          N/A
$$




USA.gov is the U.S. government's official web portal to all federal, state and local government web resources and services.